This demonstration page uses our WeatherBlox Daily Observations layout. Learn more.

Left ArrowRight Arrow

36.17497, -115.13722

Hourly Observations for January 13, 2016

Temp ( °F °C ) Dew Point ( °F °C ) Humidity (%) Winds ( mph kmh ) Pressure ( in mb ) Visibility ( mi km ) Precip ( " mm )
12:53 am 00:53 Clear 35 1.7 24 -4.4 64 64 NW 6 9 30.27 1025 10 16.0934 0 0
1:53 am 01:53 Clear 34 1.1 23 -5 64 64 NNW 3 6 30.27 1025 10 16.0934 0 0
2:53 am 02:53 Clear 34 1.1 23 -5 64 64 NW 3 6 30.27 1025 10 16.0934 0 0
3:53 am 03:53 Clear 32 0 23 -5 69 69 NW 3 6 30.26 1025 10 16.0934 0 0
4:53 am 04:53 Clear 32 0 22 -5.6 66 66 N 3 6 30.26 1025 10 16.0934 0 0
5:53 am 05:53 Mostly Clear 32 0 22 -5.6 66 66 Calm 30.26 1025 N/A 0 0
6:53 am 06:53 Sunny 31 -0.6 22 -5.6 69 69 N 3 6 30.27 1025 10 16.0934 0 0
7:53 am 07:53 Sunny 34 1.1 23 -5 64 64 N 3 6 30.27 1025 10 16.0934 0 0
8:53 am 08:53 Sunny 39 3.9 23 -5 53 53 Calm 30.26 1025 10 16.0934 0 0
9:53 am 09:53 Sunny 42 5.6 24 -4.4 49 49 Calm 30.26 1025 10 16.0934 0 0
10:53 am 10:53 Sunny 45 7.2 23 -5 42 42 E 6 9 30.23 1024 10 16.0934 0 0
11:53 am 11:53 Sunny 47 8.3 22 -5.6 37 37 E 8 13 30.18 1022 10 16.0934 0 0
12:53 pm 12:53 Sunny 48 8.9 23 -5 37 37 ESE 6 9 30.15 1021 10 16.0934 0 0
1:53 pm 13:53 Sunny 49 9.4 23 -5 36 36 ESE 5 7 30.13 1020 10 16.0934 0 0
2:53 pm 14:53 Sunny 50 10 23 -5 35 35 ESE 7 11 30.11 1020 10 16.0934 0 0
3:53 pm 15:53 Sunny 48 8.9 24 -4.4 39 39 ESE 8 13 30.12 1020 10 16.0934 0 0
4:53 pm 16:53 Clear 47 8.3 23 -5 39 39 ESE 3 6 30.12 1020 10 16.0934 0 0
5:53 pm 17:53 Clear 45 7.2 25 -3.9 46 46 N 6 9 30.12 1020 10 16.0934 0 0
6:53 pm 18:53 Clear 44 6.7 25 -3.9 47 47 NNW 7 11 30.14 1021 10 16.0934 0 0
7:53 pm 19:53 Clear 41 5 24 -4.4 51 51 WNW 5 7 30.14 1021 10 16.0934 0 0
8:53 pm 20:53 Clear 41 5 25 -3.9 53 53 WSW 5 7 30.11 1020 10 16.0934 0 0
9:53 pm 21:53 Clear 37 2.8 25 -3.9 62 62 WNW 3 6 30.13 1020 10 16.0934 0 0
10:53 pm 22:53 Clear 36 2.2 25 -3.9 64 64 NNW 5 7 30.13 1020 10 16.0934 0 0
11:53 pm 23:53 Clear 35 1.7 24 -4.4 64 64 NNW 5 7 30.13 1020 10 16.0934 0 0

Powered by AerisWeather